Overview Statistics Trail Chart Weather Telemetry Raw packets
 

This is the latest recevied weather packets stored in our database for station/object WE1C. If no packets are shown the sender has not sent any weather packets the latest 10 day(s).

<< 108 109 110 111 112 113 114 >>
Time Temp. Humidity Pressure Rain* Wind** Luminosity Snow
1787790851 17.78° C 93% 1046.5 hPa 0 mm - 0 W/m² -
1787790547 17.78° C 92% 1046.5 hPa 0 mm - 0 W/m² -
1787790242 17.78° C 92% 1046.6 hPa 0 mm - 0 W/m² -
1787789937 18.33° C 92% 1046.6 hPa 0 mm - 0 W/m² -
1787789636 18.33° C 92% 1046.4 hPa 0 mm - 0 W/m² -
1787789331 18.33° C 91% 1046.4 hPa 0 mm - 0 W/m² -
1787789028 18.89° C 91% 1046.2 hPa 0 mm - 0 W/m² -
1787788723 18.89° C 91% 1046.2 hPa 0 mm - 0 W/m² -
1787788418 18.89° C 90% 1046.2 hPa 0 mm - 0 W/m² -
1787788113 18.89° C 90% 1046.3 hPa 0 mm - 0 W/m² -
1787787808 18.89° C 89% 1046.3 hPa 0 mm - 0 W/m² -
1787787507 19.44° C 89% 1046 hPa 0 mm - 0 W/m² -
1787787207 19.44° C 88% 1046.1 hPa 0 mm - 0 W/m² -
1787786907 19.44° C 88% 1046 hPa 0 mm - 2 W/m² -
1787786602 20° C 88% 1045.9 hPa 0 mm - 3 W/m² -
1787786296 20° C 87% 1046 hPa 0 mm - 5 W/m² -
1787785993 20° C 87% 1046 hPa 0 mm - 7 W/m² -
1787785693 20° C 87% 1045.7 hPa 0 mm - 11 W/m² -
1787785388 20.56° C 86% 1045.9 hPa 0 mm - 12 W/m² -
1787785086 20.56° C 86% 1046.1 hPa 0 mm - 18 W/m² -
1787784782 20.56° C 85% 1045.8 hPa 0 mm - 21 W/m² -
1787784481 20.56° C 85% 1045.8 hPa 0 mm - 24 W/m² -
1787784176 21.11° C 85% 1045.9 hPa 0 mm - 25 W/m² -
1787783876 21.11° C 83% 1045.7 hPa 0 mm - 26 W/m² -
1787783567 21.11° C 83% 1045.8 hPa 0 mm - 29 W/m² -

* Rain latest hour (hover to see other rain measurements)
** Current wind speed in m/s (hover to see current wind gust speed)